Agassiz, British Columbia

6:03 AM PST on February 22, 2017 (GMT -0800)
Agassiz

Weather History for CWZA - March, 2013

Change the Weather History Date:

Thursday, March 7, 2013

  Actual Average Record
Temperature  
Mean Temperature 43 °F -  
Max Temperature 48 °F 53 °F - ()
Min Temperature 38 °F 38 °F - ()
Degree Days  
Heating Degree Days 22    
Moisture  
Dew Point 39 °F    
Average Humidity 90    
Maximum Humidity 98    
Minimum Humidity 67    
Precipitation  
Precipitation 0.04 in 0.19 in - ()
Sea Level Pressure  
Sea Level Pressure 30.05 in    
Wind  
Wind Speed 1 mph ()    
Max Wind Speed 4 mph    
Max Gust Speed -    
T = Trace of Precipitation, MM = Missing Value Source: Averaged Metar Reports

Daily Weather History Graph

Daily Weather History Graph

Search for Another Location

Airport or City:

Trip Planner

Search our weather history database for the weather conditions in past years. The results will help you decide how hot, cold, wet, or windy it might be!

Date:

Astronomy

Mar. 07, 2013 Rise Set
Actual Time 6:36 AM PST 6:00 PM PST
Civil Twilight 6:04 AM PST 6:32 PM PST
Nautical Twilight 5:27 AM PST 7:08 PM PST
Astronomical Twilight 4:50 AM PST 7:46 PM PST
Moon 3:59 AM PST (3/7) 1:36 PM PST (3/7)
Length of Visible Light 12h 27m
Length of Day
11h 23m
Waning Crescent, 19% of the Moon is Illuminated
Mar 7
Waning Crescent
Mar 11
New
Mar 19
First Quarter
Mar 27
Full
Apr 2
Last Quarter

Hourly Weather History & Observations

Time (PST) Temp. Windchill Dew Point Humidity Pressure Visibility Wind Dir Wind Speed Gust Speed Precip Events Conditions
12:00 AM 40.5 °F - 38.8 °F 94% 29.90 in - Calm Calm - N/A   Unknown
1:00 AM 40.3 °F - 39.0 °F 95% 29.92 in - NE 1.2 mph - N/A   Unknown
2:00 AM 39.9 °F - 39.0 °F 97% 29.94 in - ENE 1.2 mph - N/A   Unknown
3:00 AM 39.7 °F - 39.0 °F 97% 29.95 in - Calm Calm - N/A   Unknown
4:00 AM 39 °F - 38 °F 97% 29.96 in - Calm Calm - -  
4:00 AM 39.2 °F - 38.5 °F 97% 29.96 in - Calm Calm - N/A   Unknown
5:00 AM 39.2 °F - 38.7 °F 98% 29.98 in - Calm Calm - N/A   Unknown
6:00 AM 39.0 °F - 38.5 °F 98% 29.99 in - Calm Calm - N/A   Unknown
7:00 AM 39.2 °F - 38.7 °F 98% 30.01 in - Calm Calm - 0.01 in   Unknown
8:00 AM 40.3 °F - 39.7 °F 98% 30.03 in - Calm Calm - 0.01 in   Unknown
9:00 AM 41.5 °F - 40.5 °F 96% 30.05 in - Calm Calm - N/A   Unknown
10:00 AM 42 °F - 40 °F 88% 30.07 in - WSW 1.2 mph - -  
10:00 AM 42.1 °F - 39.6 °F 91% 30.07 in - WSW 1.2 mph - 0.01 in   Unknown
11:00 AM 42.8 °F - 38.7 °F 85% 30.08 in - SW 1.2 mph - N/A   Unknown
12:00 PM 43.2 °F - 38.5 °F 84% 30.09 in - SW 1.2 mph - N/A   Unknown
1:00 PM 44.2 °F - 39.0 °F 82% 30.09 in - SSW 1.2 mph - N/A   Unknown
2:00 PM 47.1 °F - 40.6 °F 78% 30.09 in - South 1.2 mph - N/A   Unknown
3:00 PM 46.4 °F 45.2 °F 40.3 °F 79% 30.09 in - SE 3.5 mph - N/A   Unknown
4:00 PM 46 °F - 38 °F 67% 30.09 in - ESE 3.5 mph - -  
4:00 PM 46.2 °F 45.0 °F 38.5 °F 74% 30.09 in - ESE 3.5 mph - N/A   Unknown
5:00 PM 47.5 °F - 38.1 °F 70% 30.09 in - Calm Calm - N/A   Unknown
6:00 PM 45.1 °F - 41.7 °F 88% 30.09 in - SE 2.3 mph - N/A   Unknown
7:00 PM 43.9 °F - 41.0 °F 90% 30.10 in - Calm Calm - N/A   Unknown
8:00 PM 42.8 °F - 40.6 °F 92% 30.10 in - Calm Calm - N/A   Unknown
9:00 PM 40.1 °F - 38.8 °F 95% 30.11 in - SE 1.2 mph - N/A   Unknown
10:00 PM 39 °F - 38 °F 93% 30.13 in - Calm Calm - -  
10:00 PM 38.7 °F - 37.8 °F 97% 30.13 in - Calm Calm - N/A   Unknown
11:00 PM 38.5 °F - 37.8 °F 97% 30.13 in - Calm Calm - N/A   Unknown